Time,TemperatureF,DewpointF,PressureIn,WindDirection,WindDirectionDegrees,WindSpeedMPH,WindSpeedGustMPH,Humidity,HourlyPrecipIn,Conditions,Clouds,dailyrainin,SolarRadiationWatts/m^2,SoftwareType,DateUTC
2013-03-02 00:02:00,32.0,29.0,30.22,SSE,165,4.0,11.0,87,0.00,,,0.01,0.000000,,2013-03-02 05:02:00,
2013-03-02 00:32:00,33.0,31.0,30.20,North,7,2.0,13.0,91,0.00,,,0.01,0.000000,,2013-03-02 05:32:00,
2013-03-02 00:42:00,33.0,31.0,30.20,North,7,2.0,13.0,91,0.00,,,0.01,0.000000,,2013-03-02 05:42:00,
2013-03-02 00:52:00,33.0,31.0,30.20,North,7,2.0,13.0,91,0.00,,,0.01,0.000000,,2013-03-02 05:52:00,
2013-03-02 01:02:00,33.0,31.0,30.20,North,7,2.0,13.0,91,0.00,,,0.01,0.000000,,2013-03-02 06:02:00,
2013-03-02 01:32:00,33.0,31.0,30.20,NW,312,3.0,9.0,91,0.00,,,0.01,0.000000,,2013-03-02 06:32:00,
2013-03-02 01:42:00,33.0,31.0,30.20,NW,312,3.0,9.0,91,0.00,,,0.01,0.000000,,2013-03-02 06:42:00,
2013-03-02 01:52:00,33.0,31.0,30.20,NW,312,3.0,9.0,91,0.00,,,0.01,0.000000,,2013-03-02 06:52:00,
2013-03-02 02:02:00,33.0,31.0,30.20,NW,312,3.0,9.0,91,0.00,,,0.01,0.000000,,2013-03-02 07:02:00,
2013-03-02 02:32:00,33.0,31.0,30.19,NW,304,3.0,9.0,92,0.00,,,0.01,0.000000,,2013-03-02 07:32:00,
2013-03-02 02:42:00,33.0,31.0,30.19,NW,304,3.0,9.0,92,0.00,,,0.01,0.000000,,2013-03-02 07:42:00,
2013-03-02 02:52:00,33.0,31.0,30.19,NW,304,3.0,9.0,92,0.00,,,0.01,0.000000,,2013-03-02 07:52:00,
2013-03-02 03:01:00,33.0,31.0,30.19,NW,304,3.0,9.0,92,0.00,,,0.01,0.000000,,2013-03-02 08:01:00,
2013-03-02 03:32:00,32.0,30.0,30.18,WNW,286,2.0,9.0,93,0.00,,,0.01,0.000000,,2013-03-02 08:32:00,
2013-03-02 03:43:00,32.0,30.0,30.18,WNW,286,2.0,9.0,93,0.00,,,0.01,0.000000,,2013-03-02 08:43:00,
2013-03-02 03:52:00,32.0,30.0,30.18,WNW,286,2.0,9.0,93,0.00,,,0.01,0.000000,,2013-03-02 08:52:00,
2013-03-02 04:02:00,32.0,30.0,30.18,WNW,286,2.0,9.0,93,0.00,,,0.01,0.000000,,2013-03-02 09:02:00,
2013-03-02 04:32:00,32.0,30.0,30.17,WNW,288,3.0,9.0,92,0.00,,,0.01,0.000000,,2013-03-02 09:32:00,
2013-03-02 04:42:00,32.0,30.0,30.17,WNW,288,3.0,9.0,92,0.00,,,0.01,0.000000,,2013-03-02 09:42:00,
2013-03-02 04:52:00,32.0,30.0,30.17,WNW,288,3.0,9.0,92,0.00,,,0.01,0.000000,,2013-03-02 09:52:00,
2013-03-02 05:01:00,32.0,30.0,30.17,WNW,288,3.0,9.0,92,0.00,,,0.01,0.000000,,2013-03-02 10:01:00,
2013-03-02 05:32:00,32.0,30.0,30.17,WNW,301,6.0,12.0,94,0.00,,,0.01,0.000000,,2013-03-02 10:32:00,
2013-03-02 05:43:00,32.0,30.0,30.17,WNW,301,6.0,12.0,94,0.00,,,0.01,0.000000,,2013-03-02 10:43:00,
2013-03-02 05:52:00,32.0,30.0,30.17,WNW,301,6.0,12.0,94,0.00,,,0.01,0.000000,,2013-03-02 10:52:00,
2013-03-02 06:01:00,32.0,30.0,30.17,WNW,301,6.0,12.0,94,0.00,,,0.01,0.000000,,2013-03-02 11:01:00,
2013-03-02 06:32:00,30.0,28.0,30.17,NW,317,3.0,10.0,93,0.00,,,0.01,0.000000,,2013-03-02 11:32:00,
2013-03-02 06:42:00,30.0,28.0,30.17,NW,317,3.0,10.0,93,0.00,,,0.01,0.000000,,2013-03-02 11:42:00,
2013-03-02 06:52:00,30.0,28.0,30.17,NW,317,3.0,10.0,93,0.00,,,0.01,0.000000,,2013-03-02 11:52:00,
2013-03-02 07:02:00,30.0,28.0,30.17,NW,317,3.0,10.0,93,0.00,,,0.01,0.000000,,2013-03-02 12:02:00,
2013-03-02 07:33:00,31.0,30.0,30.18,WNW,300,4.0,11.0,95,0.00,,,0.01,0.000000,,2013-03-02 12:33:00,
2013-03-02 07:43:00,31.0,30.0,30.18,WNW,300,4.0,11.0,95,0.00,,,0.01,0.000000,,2013-03-02 12:43:00,
2013-03-02 07:53:00,31.0,30.0,30.18,WNW,300,4.0,11.0,95,0.00,,,0.01,0.000000,,2013-03-02 12:53:00,
2013-03-02 08:01:00,31.0,30.0,30.18,WNW,300,4.0,11.0,95,0.00,,,0.01,0.000000,,2013-03-02 13:01:00,
2013-03-02 08:32:00,32.0,29.0,30.19,NW,304,4.0,8.0,90,0.00,,,0.01,27.000000,,2013-03-02 13:32:00,
2013-03-02 08:42:00,32.0,29.0,30.19,NW,304,4.0,8.0,90,0.00,,,0.01,27.000000,,2013-03-02 13:42:00,
2013-03-02 08:52:00,32.0,29.0,30.19,NW,304,4.0,8.0,90,0.00,,,0.01,27.000000,,2013-03-02 13:52:00,
2013-03-02 09:01:00,32.0,29.0,30.19,NW,304,4.0,8.0,90,0.00,,,0.01,27.000000,,2013-03-02 14:01:00,
2013-03-02 09:32:00,33.0,30.0,30.19,WNW,303,5.0,14.0,87,0.00,,,0.01,89.000000,,2013-03-02 14:32:00,
2013-03-02 09:42:00,33.0,30.0,30.19,WNW,303,5.0,14.0,87,0.00,,,0.01,89.000000,,2013-03-02 14:42:00,
2013-03-02 09:52:00,33.0,30.0,30.19,WNW,303,5.0,14.0,87,0.00,,,0.01,89.000000,,2013-03-02 14:52:00,
2013-03-02 10:02:00,33.0,30.0,30.19,WNW,303,5.0,14.0,87,0.00,,,0.01,89.000000,,2013-03-02 15:02:00,
2013-03-02 10:32:00,33.0,29.0,30.20,WNW,302,6.0,16.0,85,0.00,,,0.01,121.000000,,2013-03-02 15:32:00,
2013-03-02 10:42:00,33.0,29.0,30.20,WNW,302,6.0,16.0,85,0.00,,,0.01,121.000000,,2013-03-02 15:42:00,
2013-03-02 10:52:00,33.0,29.0,30.20,WNW,302,6.0,16.0,85,0.00,,,0.01,121.000000,,2013-03-02 15:52:00,
2013-03-02 11:02:00,33.0,29.0,30.20,WNW,302,6.0,16.0,85,0.00,,,0.01,121.000000,,2013-03-02 16:02:00,
2013-03-02 11:32:00,33.0,28.0,30.20,ENE,78,6.0,17.0,83,0.00,,,0.01,239.000000,,2013-03-02 16:32:00,
2013-03-02 11:42:00,33.0,28.0,30.20,ENE,78,6.0,17.0,83,0.00,,,0.01,239.000000,,2013-03-02 16:42:00,
2013-03-02 11:52:00,33.0,28.0,30.20,ENE,78,6.0,17.0,83,0.00,,,0.01,239.000000,,2013-03-02 16:52:00,
2013-03-02 12:01:00,33.0,28.0,30.20,ENE,78,6.0,17.0,83,0.00,,,0.01,239.000000,,2013-03-02 17:01:00,
2013-03-02 12:32:00,37.0,29.0,30.19,WNW,302,5.0,19.0,74,0.02,,,0.02,315.000000,,2013-03-02 17:32:00,
2013-03-02 12:42:00,37.0,29.0,30.19,WNW,302,5.0,19.0,74,0.02,,,0.02,315.000000,,2013-03-02 17:42:00,
2013-03-02 12:52:00,37.0,29.0,30.19,WNW,302,5.0,19.0,74,0.02,,,0.02,315.000000,,2013-03-02 17:52:00,
2013-03-02 13:02:00,37.0,29.0,30.19,WNW,302,5.0,19.0,74,0.02,,,0.02,315.000000,,2013-03-02 18:02:00,
2013-03-02 13:32:00,41.0,28.0,30.16,NNW,338,4.0,16.0,60,0.00,,,0.02,590.000000,,2013-03-02 18:32:00,
2013-03-02 13:42:00,41.0,28.0,30.16,NNW,338,4.0,16.0,60,0.00,,,0.02,590.000000,,2013-03-02 18:42:00,
2013-03-02 13:52:00,41.0,28.0,30.16,NNW,338,4.0,16.0,60,0.00,,,0.02,590.000000,,2013-03-02 18:52:00,
2013-03-02 14:02:00,41.0,28.0,30.16,NNW,338,4.0,16.0,60,0.00,,,0.02,590.000000,,2013-03-02 19:02:00,
2013-03-02 14:32:00,32.0,28.0,30.17,NW,311,3.0,15.0,86,0.01,,,0.03,285.000000,,2013-03-02 19:32:00,
2013-03-02 14:43:00,32.0,28.0,30.17,NW,311,3.0,15.0,86,0.01,,,0.03,285.000000,,2013-03-02 19:43:00,
2013-03-02 14:52:00,32.0,28.0,30.17,NW,311,3.0,15.0,86,0.01,,,0.03,285.000000,,2013-03-02 19:52:00,
2013-03-02 15:01:00,32.0,28.0,30.17,NW,311,3.0,15.0,86,0.01,,,0.03,285.000000,,2013-03-02 20:01:00,
2013-03-02 15:32:00,32.0,29.0,30.17,WNW,298,3.0,17.0,88,0.01,,,0.04,237.000000,,2013-03-02 20:32:00,
2013-03-02 15:42:00,32.0,29.0,30.17,WNW,298,3.0,17.0,88,0.01,,,0.04,237.000000,,2013-03-02 20:42:00,
2013-03-02 15:53:00,32.0,29.0,30.17,WNW,298,3.0,17.0,88,0.01,,,0.04,237.000000,,2013-03-02 20:53:00,
2013-03-02 16:02:00,32.0,29.0,30.17,WNW,298,3.0,17.0,88,0.01,,,0.04,237.000000,,2013-03-02 21:02:00,
2013-03-02 16:32:00,32.0,29.0,30.18,NW,304,4.0,16.0,89,0.01,,,0.05,98.000000,,2013-03-02 21:32:00,
2013-03-02 16:42:00,32.0,29.0,30.18,NW,304,4.0,16.0,89,0.01,,,0.05,98.000000,,2013-03-02 21:42:00,
2013-03-02 16:52:00,32.0,29.0,30.18,NW,304,4.0,16.0,89,0.01,,,0.05,98.000000,,2013-03-02 21:52:00,
2013-03-02 17:02:00,32.0,29.0,30.18,NW,304,4.0,16.0,89,0.01,,,0.05,98.000000,,2013-03-02 22:02:00,
2013-03-02 17:32:00,32.0,28.0,30.19,WNW,301,5.0,13.0,86,0.00,,,0.05,25.000000,,2013-03-02 22:32:00,
2013-03-02 17:42:00,32.0,28.0,30.19,WNW,301,5.0,13.0,86,0.00,,,0.05,25.000000,,2013-03-02 22:42:00,
2013-03-02 17:52:00,32.0,28.0,30.19,WNW,301,5.0,13.0,86,0.00,,,0.05,25.000000,,2013-03-02 22:52:00,
2013-03-02 18:02:00,32.0,28.0,30.19,WNW,301,5.0,13.0,86,0.00,,,0.05,25.000000,,2013-03-02 23:02:00,
2013-03-02 18:32:00,32.0,26.0,30.21,North,350,3.0,17.0,77,0.00,,,0.05,29.000000,,2013-03-02 23:32:00,
2013-03-02 18:42:00,32.0,26.0,30.21,North,350,3.0,17.0,77,0.00,,,0.05,29.000000,,2013-03-02 23:42:00,
2013-03-02 18:52:00,32.0,26.0,30.21,North,350,3.0,17.0,77,0.00,,,0.05,29.000000,,2013-03-02 23:52:00,
2013-03-02 19:02:00,32.0,26.0,30.21,North,350,3.0,17.0,77,0.00,,,0.05,29.000000,,2013-03-03 00:02:00,
2013-03-02 19:32:00,30.0,24.0,30.23,NW,311,6.0,18.0,78,0.00,,,0.05,2.000000,,2013-03-03 00:32:00,
2013-03-02 19:42:00,30.0,24.0,30.23,NW,311,6.0,18.0,78,0.00,,,0.05,2.000000,,2013-03-03 00:42:00,
2013-03-02 19:52:00,30.0,24.0,30.23,NW,311,6.0,18.0,78,0.00,,,0.05,2.000000,,2013-03-03 00:52:00,
2013-03-02 20:01:00,30.0,24.0,30.23,NW,311,6.0,18.0,78,0.00,,,0.05,2.000000,,2013-03-03 01:01:00,
2013-03-02 20:32:00,29.0,22.0,30.25,SSE,154,5.0,16.0,76,0.00,,,0.05,0.000000,,2013-03-03 01:32:00,
2013-03-02 20:42:00,29.0,22.0,30.25,SSE,154,5.0,16.0,76,0.00,,,0.05,0.000000,,2013-03-03 01:42:00,
2013-03-02 20:52:00,29.0,22.0,30.25,SSE,154,5.0,16.0,76,0.00,,,0.05,0.000000,,2013-03-03 01:52:00,
2013-03-02 21:01:00,29.0,22.0,30.25,SSE,154,5.0,16.0,76,0.00,,,0.05,0.000000,,2013-03-03 02:01:00,
2013-03-02 21:32:00,28.0,22.0,30.26,ESE,104,3.0,18.0,79,0.00,,,0.05,0.000000,,2013-03-03 02:32:00,
2013-03-02 21:42:00,28.0,22.0,30.26,ESE,104,3.0,18.0,79,0.00,,,0.05,0.000000,,2013-03-03 02:42:00,
2013-03-02 21:52:00,28.0,22.0,30.26,ESE,104,3.0,18.0,79,0.00,,,0.05,0.000000,,2013-03-03 02:52:00,
2013-03-02 22:02:00,28.0,22.0,30.26,ESE,104,3.0,18.0,79,0.00,,,0.05,0.000000,,2013-03-03 03:02:00,
2013-03-02 22:32:00,28.0,22.0,30.27,NE,36,3.0,15.0,79,0.00,,,0.05,0.000000,,2013-03-03 03:32:00,
2013-03-02 22:42:00,28.0,22.0,30.27,NE,36,3.0,15.0,79,0.00,,,0.05,0.000000,,2013-03-03 03:42:00,
2013-03-02 22:52:00,28.0,22.0,30.27,NE,36,3.0,15.0,79,0.00,,,0.05,0.000000,,2013-03-03 03:52:00,
2013-03-02 23:01:00,28.0,22.0,30.27,NE,36,3.0,15.0,79,0.00,,,0.05,0.000000,,2013-03-03 04:01:00,
2013-03-02 23:32:00,27.0,21.0,30.26,ENE,75,2.0,11.0,77,0.00,,,0.05,0.000000,,2013-03-03 04:32:00,
2013-03-02 23:42:00,27.0,21.0,30.26,ENE,75,2.0,11.0,77,0.00,,,0.05,0.000000,,2013-03-03 04:42:00,
2013-03-02 23:52:00,27.0,21.0,30.26,ENE,75,2.0,11.0,77,0.00,,,0.05,0.000000,,2013-03-03 04:52:00,